Temperature
23 24 24 23 22 22 21 21 20 20 20 20 20 20 20 20 20 20 20 19 19 19 19 19 19 19 19 19 19 19 19 19 19 19 19 19 18 18 18 17 17 17 17
24 24 23 23 23 22 21 21 20 20 20 20 20 19 19 19 19 19 19 19 19 19 19 19 19 19 19 19 19 19 19 19 19 19 19 18 18 18 17 17 17 17 17
24 24 23 23 23 22 21 21 20 20 20 20 19 19 19 19 19 19 19 19 19 19 19 19 19 19 19 19 19 19 19 19 19 18 18 18 18 18 18 17 17 17 17
24 24 23 23 23 22 22 21 21 20 20 20 20 19 19 19 19 19 19 19 19 19 19 19 19 19 19 19 20 20 19 19 18 18 18 17 18 18 18 18 17 17 17
23 23 23 23 23 22 22 21 21 20 20 20 20 19 19 19 19 19 19 19 19 19 19 19 19 19 19 20 20 20 20 19 18 18 18 18 18 18 18 18 18 18 17
22 23 23 23 23 22 22 22 21 21 20 20 20 20 19 19 19 19 19 19 19 19 19 19 19 19 20 20 20 20 20 19 19 18 18 18 18 18 19 18 18 18 18
22 23 23 23 23 22 22 22 21 21 21 20 20 20 20 19 19 19 19 19 19 19 19 19 19 19 20 20 20 20 20 19 19 18 18 18 18 18 19 19 18 18 18
22 23 23 23 22 22 22 22 21 21 21 20 20 20 20 20 19 19 19 19 19 19 19 19 19 19 20 20 20 20 20 19 19 18 18 18 18 19 19 19 19 18 18
23 22 23 23 22 22 22 22 21 21 21 21 20 20 20 20 20 20 19 19 19 19 19 19 19 19 20 20 20 20 20 19 19 18 18 18 19 19 19 19 19 19 18
23 22 23 22 22 22 21 21 21 21 21 20 20 20 20 20 20 20 20 20 19 19 19 19 19 19 19 20 20 20 20 19 19 19 19 18 18 19 19 19 19 19 18
24 22 22 21 21 21 21 21 21 20 20 20 20 20 20 20 20 20 20 20 20 19 19 19 19 19 19 19 19 19 19 19 19 19 19 19 19 19 19 19 18 18 18
24 23 22 21 20 20 20 20 20 20 20 20 20 20 20 20 19 19 19 19 19 19 19 19 19 19 19 19 19 19 19 19 19 19 19 19 19 19 19 19 18 18 18
23 23 22 21 20 20 20 20 19 19 19 19 19 19 19 19 18 18 19 19 18 18 19 19 19 19 19 19 18 18 19 18 19 18 19 19 19 19 19 19 18 18 18
23 22 22 21 20 20 20 20 19 19 19 19 19 19 18 18 18 18 18 19 18 18 18 18 18 18 18 18 18 18 18 18 18 18 19 19 19 19 18 18 19 18 18
21 21 21 20 20 19 19 19 19 19 19 19 19 18 18 18 18 18 18 18 18 18 18 18 18 18 18 18 18 18 18 18 18 18 19 18 18 18 18 18 19 19 18
20 20 20 19 19 19 18 19 18 18 18 18 18 18 18 18 18 18 18 18 18 18 18 18 18 18 18 18 18 18 18 18 18 18 18 18 18 18 18 18 19 19 18
19 19 19 19 18 18 18 18 18 18 18 18 18 18 17 17 17 17 17 17 17 18 18 18 17 17 18 17 17 18 18 18 18 18 18 18 18 18 18 18 18 18 18
18 18 18 18 18 17 17 17 17 17 17 17 17 17 17 17 17 17 17 17 17 17 17 17 17 17 17 17 17 17 17 18 18 18 18 18 18 18 18 18 18 18 18
18 17 17 18 17 17 17 17 17 17 17 17 16 16 16 16 16 16 16 16 16 16 16 16 16 16 16 17 17 17 17 17 18 17 18 18 18 18 18 18 18 18 18
17 17 17 17 17 17 17 17 16 16 16 16 16 16 16 16 16 16 16 16 16 16 16 16 16 16 16 16 16 17 17 17 17 17 17 17 18 17 17 18 18 18 18
17 17 17 17 17 17 17 17 16 16 16 16 16 16 15 15 15 15 15 15 15 15 15 15 15 15 15 16 16 16 17 17 17 17 17 17 18 17 17 17 17 18 18
17 17 17 16 16 16 16 16 16 16 16 16 16 15 15 15 15 14 15 15 15 15 15 15 15 15 15 15 15 16 16 17 17 17 18 18 18 17 17 17 17 17 17
17 17 17 16 16 15 15 15 15 15 15 15 15 15 14 14 14 14 14 14 14 14 14 14 14 14 15 15 15 16 16 17 18 18 18 18 18 18 18 18 18 18 17
18 17 17 16 15 15 15 14 14 14 14 14 14 14 14 14 14 14 14 14 14 14 14 14 14 14 14 15 15 16 16 17 17 18 18 18 18 18 18 18 18 18 18
18 17 17 16 15 15 14 14 13 13 13 13 13 13 13 13 13 14 13 13 13 13 13 14 14 14 14 14 15 15 16 16 17 17 17 18 18 18 18 18 18 18 17
18 17 17 16 15 14 14 13 13 12 12 12 12 12 13 13 13 13 13 13 13 13 13 13 13 14 14 14 14 15 15 16 16 17 17 18 18 18 18 18 18 18 17
Wind_Speed
18 19 21 18 16 14 12 12 13 14 13 12 11 11 10 10 10 10 11 11 10 10 10 9 9 9 9 9 10 11 11 12 13 14 14 14 13 12 10 9 12 17 16
21 20 21 19 16 14 13 12 12 13 13 12 11 11 11 10 10 10 9 9 9 9 9 9 9 9 9 9 9 9 9 9 10 10 12 13 12 11 10 9 13 15 16
21 20 19 18 16 15 13 12 12 13 13 12 12 11 11 10 10 9 9 8 8 7 8 8 9 8 8 8 8 8 8 7 7 7 9 12 12 11 12 15 18 16 15
20 18 18 19 17 15 13 12 12 12 13 13 12 12 11 11 10 9 9 8 7 7 8 8 8 8 8 8 7 7 6 5 4 5 8 9 13 12 11 13 14 14 13
18 18 19 19 17 15 13 12 12 12 12 12 12 11 11 10 10 9 9 8 7 7 8 8 8 7 7 7 6 6 5 4 4 7 4 12 15 13 11 11 11 12 12
18 18 19 18 17 15 14 12 11 11 11 11 11 11 10 10 10 9 9 8 8 8 8 8 8 8 7 7 6 6 6 6 7 9 6 12 15 13 12 10 10 10 11
18 18 19 18 16 15 13 12 11 11 10 10 10 10 10 10 10 9 9 9 8 8 8 8 9 9 8 8 7 7 7 7 10 8 4 12 16 16 13 11 9 9 9
19 18 18 17 16 14 13 12 11 10 10 10 10 10 10 10 10 10 10 10 10 10 10 9 9 10 10 9 9 9 8 10 11 11 7 13 20 18 15 12 11 10 9
19 18 15 16 14 13 12 11 11 10 10 10 10 10 10 10 10 10 11 11 11 11 12 12 11 11 11 11 11 11 10 12 12 12 7 13 21 20 16 14 12 12 11
18 17 15 15 14 13 12 12 11 10 10 10 10 10 10 11 11 12 13 14 14 13 13 13 13 13 14 14 13 13 13 12 13 14 10 12 24 21 19 16 14 14 13
14 14 13 14 13 12 13 14 13 11 11 11 11 12 12 12 14 15 18 19 18 17 16 16 15 15 15 16 16 16 14 12 13 14 12 14 25 23 20 18 16 15 16
9 10 10 10 10 7 7 12 11 11 12 13 12 13 13 13 13 14 18 23 22 20 19 18 18 17 16 14 17 19 14 15 15 14 13 19 25 23 21 20 18 17 17
6 4 8 8 7 3 1 5 4 5 8 12 13 12 12 11 11 12 8 14 18 19 16 17 17 16 16 14 12 15 16 15 14 14 12 22 26 24 22 20 19 18 18
5 5 7 8 6 3 4 2 1 2 1 3 7 10 7 4 5 5 4 5 9 12 11 10 10 14 15 16 13 12 15 14 12 12 12 22 24 24 22 20 19 19 19
7 7 8 8 8 6 5 5 5 4 4 4 3 4 5 4 5 6 5 5 6 7 6 8 9 11 12 10 11 10 10 13 13 12 10 20 22 22 22 21 20 20 21
10 9 8 8 7 5 3 3 4 4 4 5 5 6 5 4 4 5 6 6 6 8 8 6 9 9 9 9 10 10 9 10 11 11 10 16 21 22 22 21 22 22 22
10 9 8 6 7 5 4 5 4 4 4 4 4 6 7 6 4 4 6 7 7 9 9 7 8 8 8 10 10 10 9 8 7 9 12 12 15 21 23 24 24 24 24
9 9 8 8 8 6 5 5 4 4 4 4 5 6 8 8 8 5 6 7 6 7 6 8 9 9 8 8 8 8 8 8 9 9 10 11 13 15 21 26 26 26 25
8 8 7 8 8 7 6 5 4 3 2 2 3 3 5 7 8 5 6 5 5 5 6 9 7 7 8 9 9 9 8 8 9 11 9 11 14 16 16 22 28 27 27
7 7 6 6 7 7 6 5 5 4 4 2 1 2 4 5 7 6 6 5 5 4 5 5 6 7 7 9 12 11 9 10 9 10 11 10 11 16 18 18 21 23 27
6 6 5 6 6 5 5 6 5 5 5 3 2 3 4 5 6 5 6 5 4 4 5 5 5 6 7 7 7 8 8 10 11 10 9 9 11 13 15 15 17 16 19
5 3 3 5 5 5 5 5 5 5 5 4 2 2 2 3 4 5 5 5 5 4 5 5 5 4 5 5 5 5 5 7 9 12 9 10 11 10 11 13 13 15 15
3 1 2 2 3 4 6 6 6 6 6 5 5 3 2 3 3 3 4 4 5 4 4 4 4 5 4 5 5 5 4 4 4 7 11 10 10 8 9 8 10 14 16
0 0 1 1 2 3 5 6 8 8 8 8 6 5 6 5 4 3 3 3 3 4 5 5 4 3 4 5 5 6 5 2 1 1 5 7 9 8 7 8 9 10 14
3 3 2 2 2 3 5 7 8 8 8 8 8 10 9 8 6 5 4 2 3 3 4 4 4 4 3 5 5 5 5 5 5 3 3 4 5 6 6 5 3 5 8
4 4 4 3 5 6 6 8 8 9 8 10 11 11 10 7 6 5 4 2 3 3 3 4 4 4 4 6 6 6 4 4 4 4 4 6 6 5 6 5 4 4 4
Wind_Direction
121 132 134 131 128 125 125 132 142 145 141 137 133 130 126 122 120 117 114 112 111 112 111 110 110 104 94 86 82 81 83 84 85 87 89 89 87 86 85 94 108 100 105
125 131 134 132 130 127 126 130 140 145 146 143 140 138 136 134 132 129 126 124 122 119 116 114 114 110 103 99 96 94 94 96 100 106 109 102 94 84 70 72 107 108 109
122 130 134 133 132 130 128 131 140 147 149 148 146 145 145 143 142 141 140 138 135 130 125 123 120 115 111 110 109 109 110 115 125 138 151 125 109 91 83 91 104 110 110
125 136 135 135 134 133 131 133 141 149 152 152 152 152 152 152 153 153 153 153 152 147 139 134 129 126 123 122 124 126 131 143 165 190 212 147 123 108 99 102 109 113 114
126 129 133 139 138 138 137 138 144 150 155 156 157 158 159 159 161 162 165 166 166 162 153 147 144 141 139 140 143 148 157 179 215 242 240 110 113 123 116 115 118 120 121
130 131 138 142 142 143 144 145 149 153 158 161 162 163 165 167 170 173 173 175 176 173 165 159 157 156 158 160 166 173 187 207 234 236 202 130 126 136 132 129 129 130 130
135 132 141 145 145 147 150 153 155 157 161 165 169 172 175 179 183 185 182 182 180 179 177 172 171 171 173 178 185 194 211 228 248 259 180 131 137 147 146 146 144 141 140
134 134 140 146 148 151 155 159 163 165 169 174 180 183 187 191 195 197 193 191 191 190 186 185 185 184 185 190 196 204 219 240 239 249 198 142 148 153 155 160 161 160 158
133 133 145 150 153 158 163 168 173 177 181 186 191 195 198 203 207 207 206 204 203 201 197 195 195 197 196 199 204 210 221 238 266 274 231 152 157 159 163 169 175 176 175
134 139 151 155 157 165 172 179 183 189 193 199 205 209 213 217 220 221 218 214 214 212 208 206 205 205 205 206 210 214 221 236 250 260 252 176 166 166 169 177 185 188 187
134 139 155 155 160 174 180 178 184 196 203 208 214 219 222 226 224 220 224 218 214 214 214 214 214 213 212 214 215 217 219 227 235 242 248 186 170 172 175 181 191 197 197
126 139 143 144 149 175 184 158 184 198 200 207 216 210 215 231 243 241 222 215 214 214 216 219 220 219 218 221 219 216 218 223 238 239 231 181 173 176 180 184 192 201 203
123 125 123 116 122 155 125 148 194 210 191 204 224 218 218 231 246 256 245 210 211 214 218 221 220 223 221 222 219 204 213 222 224 236 217 179 177 181 184 188 194 203 207
98 72 67 94 95 54 26 352 298 291 213 211 218 226 232 229 249 269 275 238 206 210 212 219 215 217 223 224 222 211 209 220 230 227 204 181 180 184 187 191 197 204 208
75 61 56 61 64 48 26 348 341 333 327 310 312 264 260 253 255 262 272 283 276 251 221 216 220 217 216 221 223 217 215 218 229 231 198 186 185 191 194 197 202 209 211
58 50 50 59 60 47 28 345 317 316 318 316 324 327 315 290 273 272 270 268 269 270 269 246 232 232 222 223 226 224 221 223 227 233 212 193 193 198 201 204 207 212 215
59 51 40 55 55 40 13 350 330 317 333 336 333 334 337 321 299 280 270 265 259 259 264 269 261 252 233 224 226 231 224 225 228 230 226 211 203 207 210 210 210 213 215
56 54 40 34 33 27 17 347 333 338 344 334 341 353 354 339 323 305 285 275 272 265 261 263 258 253 252 242 229 230 231 225 226 228 225 219 213 218 218 217 213 212 214
63 59 54 43 25 7 354 335 327 318 320 320 342 11 354 340 329 310 292 286 286 273 264 262 261 253 251 251 245 235 234 229 225 227 219 220 219 220 216 216 215 212 213
75 63 53 52 29 358 6 346 349 344 345 326 348 38 9 345 338 326 305 305 300 295 290 273 269 267 257 252 250 244 229 224 219 222 219 219 221 224 219 214 211 215 215
86 76 62 47 36 5 15 349 339 341 333 316 314 53 13 345 340 321 320 323 310 298 295 287 270 270 260 249 243 248 243 227 217 216 214 216 217 221 220 210 199 202 210
97 87 83 50 27 3 5 322 306 324 308 296 347 36 10 349 338 328 336 321 315 310 298 288 278 268 268 247 230 230 237 229 217 216 207 212 216 217 213 207 194 198 202
110 88 55 48 4 0 344 322 336 325 310 322 330 318 350 326 310 308 308 312 314 309 307 301 275 264 267 273 245 225 225 229 214 204 204 206 205 209 209 200 192 194 200
209 100 85 44 11 355 337 332 328 315 314 317 318 321 321 303 283 275 278 292 308 309 310 312 314 279 259 267 275 251 253 272 257 224 205 201 196 201 208 208 199 186 192
325 344 355 33 17 352 338 320 316 313 318 315 317 310 305 292 270 254 245 248 277 295 311 314 315 304 281 271 271 277 265 252 233 228 215 201 195 195 198 207 190 169 180
316 316 330 22 14 356 335 324 316 316 314 310 301 293 292 287 284 282 268 238 261 276 295 299 300 301 287 277 275 271 271 258 242 239 222 202 194 196 183 183 185 167 158
Height
1496 1498 1501 1505 1508 1511 1513 1516 1518 1521 1523 1525 1527 1528 1530 1531 1533 1534 1535 1537 1538 1539 1541 1542 1543 1544 1545 1546 1547 1548 1548 1549 1550 1551 1552 1552 1553 1554 1555 1556 1557 1558 1559
1495 1499 1502 1505 1508 1511 1514 1517 1519 1522 1524 1526 1528 1529 1531 1533 1534 1535 1537 1538 1539 1541 1542 1543 1544 1545 1546 1547 1548 1549 1550 1551 1552 1553 1554 1554 1555 1556 1557 1558 1559 1560 1561
1496 1499 1503 1506 1509 1512 1515 1517 1520 1522 1524 1526 1528 1530 1532 1533 1535 1536 1538 1539 1540 1542 1543 1544 1545 1546 1547 1548 1549 1550 1551 1552 1553 1554 1555 1557 1558 1558 1559 1560 1561 1562 1564
1497 1500 1503 1506 1510 1512 1515 1517 1520 1522 1524 1527 1528 1530 1532 1534 1535 1537 1538 1540 1541 1542 1544 1545 1546 1547 1548 1549 1550 1551 1553 1554 1555 1556 1557 1559 1559 1560 1561 1561 1562 1564 1565
1499 1501 1504 1507 1510 1513 1515 1518 1520 1522 1525 1527 1529 1530 1532 1534 1536 1537 1539 1540 1541 1543 1544 1545 1547 1548 1549 1550 1551 1553 1554 1555 1556 1557 1559 1561 1561 1562 1562 1563 1564 1565 1567
1500 1502 1505 1508 1511 1513 1516 1518 1520 1523 1525 1527 1529 1531 1532 1534 1536 1537 1539 1540 1542 1543 1544 1545 1547 1548 1549 1551 1552 1553 1555 1556 1557 1558 1561 1561 1562 1563 1563 1564 1565 1566 1568
1502 1503 1507 1509 1512 1514 1516 1518 1521 1523 1525 1527 1529 1531 1532 1534 1535 1537 1538 1540 1541 1543 1544 1545 1546 1547 1549 1550 1552 1553 1555 1556 1557 1559 1561 1562 1562 1563 1564 1565 1566 1567 1569
1504 1505 1508 1510 1513 1515 1517 1519 1521 1523 1525 1527 1529 1530 1532 1533 1535 1536 1538 1539 1540 1541 1543 1544 1545 1546 1548 1549 1551 1552 1554 1556 1557 1559 1561 1561 1562 1563 1564 1565 1566 1568 1569
1506 1506 1509 1511 1514 1516 1518 1520 1522 1523 1525 1527 1528 1530 1531 1532 1534 1535 1537 1538 1539 1540 1542 1543 1544 1545 1546 1548 1549 1551 1552 1554 1555 1557 1560 1560 1561 1562 1564 1565 1566 1567 1569
1508 1508 1510 1512 1515 1517 1519 1521 1522 1524 1525 1527 1528 1529 1531 1532 1533 1534 1535 1536 1537 1539 1540 1541 1542 1543 1544 1545 1547 1548 1550 1551 1553 1554 1557 1558 1559 1561 1562 1564 1565 1567 1568
1511 1511 1513 1514 1515 1517 1519 1521 1523 1524 1525 1527 1528 1529 1530 1530 1531 1532 1533 1534 1535 1536 1537 1538 1539 1540 1541 1542 1543 1545 1546 1548 1550 1552 1554 1555 1556 1558 1560 1562 1563 1565 1567
1512 1514 1515 1516 1516 1519 1521 1521 1523 1524 1525 1526 1527 1527 1528 1529 1530 1532 1532 1532 1532 1533 1534 1535 1536 1536 1537 1538 1539 1541 1542 1544 1546 1548 1550 1552 1553 1555 1557 1559 1561 1563 1565
1513 1515 1516 1517 1517 1520 1522 1522 1523 1524 1525 1525 1526 1526 1526 1527 1528 1529 1530 1529 1529 1529 1529 1530 1531 1532 1533 1534 1535 1536 1538 1540 1542 1544 1546 1547 1549 1551 1553 1555 1557 1559 1562
1513 1515 1516 1517 1517 1519 1521 1522 1523 1524 1524 1524 1524 1524 1525 1525 1525 1526 1527 1527 1526 1525 1524 1525 1525 1526 1528 1529 1531 1532 1533 1535 1538 1540 1541 1542 1544 1546 1549 1551 1553 1555 1558
1512 1514 1515 1516 1516 1518 1519 1520 1521 1521 1522 1523 1522 1522 1522 1521 1521 1521 1521 1522 1522 1521 1521 1520 1521 1522 1523 1524 1526 1528 1529 1530 1533 1535 1536 1537 1539 1542 1544 1546 1548 1551 1553
1512 1514 1515 1516 1516 1517 1518 1518 1519 1519 1520 1520 1520 1519 1518 1517 1517 1516 1516 1516 1516 1516 1516 1516 1516 1516 1516 1518 1520 1522 1524 1526 1527 1529 1530 1531 1533 1536 1539 1541 1544 1546 1548
1512 1514 1515 1516 1516 1516 1516 1517 1517 1517 1518 1517 1516 1515 1514 1513 1512 1511 1510 1509 1509 1510 1509 1509 1509 1510 1510 1512 1513 1516 1518 1520 1521 1523 1524 1526 1528 1531 1533 1535 1538 1540 1543
1513 1514 1515 1516 1516 1516 1515 1515 1515 1515 1515 1514 1513 1511 1510 1509 1508 1506 1504 1503 1503 1502 1502 1501 1502 1502 1503 1506 1508 1510 1512 1514 1515 1516 1518 1520 1522 1524 1527 1529 1532 1534 1537
1514 1514 1515 1515 1515 1515 1515 1514 1514 1514 1512 1511 1510 1508 1506 1505 1503 1501 1499 1498 1496 1495 1495 1495 1495 1495 1496 1499 1502 1504 1505 1507 1509 1511 1512 1513 1515 1517 1520 1523 1525 1528 1531
1515 1515 1515 1515 1514 1514 1514 1513 1513 1512 1511 1509 1507 1505 1503 1501 1500 1498 1495 1493 1491 1490 1489 1489 1489 1489 1490 1492 1495 1497 1499 1500 1502 1504 1505 1507 1508 1511 1513 1516 1519 1522 1525
1516 1515 1515 1514 1514 1513 1512 1511 1510 1510 1508 1507 1505 1503 1500 1499 1497 1494 1492 1489 1488 1486 1485 1484 1483 1483 1485 1486 1488 1490 1492 1494 1495 1497 1499 1501 1502 1504 1507 1510 1513 1516 1519
1516 1516 1515 1514 1513 1512 1511 1510 1509 1508 1506 1505 1503 1500 1498 1496 1494 1492 1489 1486 1484 1483 1481 1480 1479 1480 1480 1482 1484 1485 1486 1489 1489 1491 1492 1494 1496 1498 1502 1505 1507 1510 1514
1516 1516 1515 1513 1511 1510 1509 1508 1506 1504 1503 1502 1500 1498 1495 1493 1491 1489 1486 1484 1482 1480 1478 1477 1476 1476 1477 1478 1480 1481 1482 1482 1483 1484 1486 1489 1490 1493 1496 1499 1503 1506 1509
1515 1515 1513 1511 1509 1508 1506 1505 1503 1501 1499 1498 1496 1494 1492 1490 1488 1485 1483 1481 1479 1477 1476 1474 1474 1474 1474 1475 1475 1477 1479 1479 1480 1480 1482 1484 1486 1489 1492 1495 1498 1501 1504
1514 1513 1511 1509 1507 1505 1503 1502 1500 1498 1496 1493 1491 1489 1487 1485 1484 1482 1479 1478 1476 1475 1473 1472 1471 1471 1471 1472 1472 1473 1474 1475 1476 1478 1479 1481 1483 1485 1488 1491 1494 1497 1499
1511 1510 1509 1506 1504 1502 1500 1498 1496 1494 1491 1488 1486 1484 1482 1481 1480 1478 1477 1474 1473 1471 1470 1469 1468 1467 1467 1468 1468 1469 1470 1472 1472 1474 1476 1478 1480 1482 1484 1487 1490 1493 1495